map of CPH home
CPH - Airport
Location
City:  Copenhagen, Denmark
Near (Alt.):København
Name:København Airport - Kastrup
ICAO:EKCH
IATA:CPH

Details
Type:Airport (Aerodrome, Airfield)
Latitude:55°37'05"N (55.617917)
Longitude:12°39'21"E (12.655972)
Elevation:17 ft (5 m)
Variation:4.08°E (WMM2015v2 magnetic declination)
0.19° annual change
Runways:3
Longest:11811 × 148 ft (3600 × 45 m), paved

Time
Time Zone:UTC+1 (DST+2)
Local Time:

Weather
METAR:EKCH 041350Z AUTO 20013KT 9999NDV OVC067/// 03/01 Q1020 NOSIG
TAF:EKCH 041112Z 0412/0512 20015KT 9999 FEW010 BKN040
TEMPO 0419/0422 4500 -SNRA BKN014
BECMG 0422/0424 BKN012
TEMPO 0500/0509 BKN007
BECMG 0509/0511 26020KT SCT020 SCT025TCU

Related Locations
Nearby:
Farthest:CHT: 11521 mi / 18541 km
Waitangi [Tuuta], CIT, NZ

Find:

   beyond  
but within

Other Information
Maps:
NOTAMs:
Links:
Sources:

  
  • flag of Denmark
  

Sectional Chart

Flight Planning
at skyvector.com

Satellite Image

Google Maps Satellite view

 

Copyright © 2004-2019 Karl L. Swartz. All rights reserved.
The Great Circle Mapper name and logo are trademarks of the Great Circle Mapper.
All other trademarks mentioned herein belong to their respective owners.
Please see credits for attibutions and further copyright information.

  Follow gcmap on Facebook Follow gcmap on Twitter GCmap on LinkedIn

hCard Microformat

Geo Microformat